Theta_e
298 297 296 296 295 296 295 295 294 294 294 293 292 292 292 292 291 290 288 287 286 286 285 285 285 286 285 286 286 286 284 285 286 285 285 288 290 289 289 293 292 291 291
296 296 295 295 293 294 295 294 294 294 293 293 293 292 292 291 290 289 288 286 285 285 284 284 284 285 285 285 285 285 283 283 285 282 283 280 285 286 289 291 290 290 290
297 295 294 293 293 293 294 294 294 293 293 292 291 290 290 289 289 288 287 285 284 284 283 283 284 284 285 284 285 284 282 279 283 284 281 278 277 282 287 287 288 289 289
299 297 295 293 293 294 295 294 294 293 291 291 290 289 289 288 287 286 286 284 284 283 283 283 284 284 285 284 284 284 282 281 279 282 283 284 283 279 279 285 287 288 288
299 297 295 294 294 294 295 295 293 292 290 289 289 289 288 287 286 285 284 284 284 283 282 283 283 284 284 284 284 283 281 283 281 281 282 283 283 284 280 278 282 286 288
298 297 297 295 294 295 295 295 292 290 289 289 288 287 287 285 284 283 283 282 283 282 282 282 283 283 283 283 284 284 283 284 284 284 284 282 280 280 280 280 281 282 286
296 295 295 294 293 293 294 293 291 289 288 287 287 286 285 284 282 281 281 280 281 281 280 281 282 282 283 283 284 284 284 284 284 284 284 284 283 283 282 282 281 282 286
295 295 294 294 292 292 292 292 290 288 287 287 286 285 284 283 282 280 280 280 280 280 280 281 282 282 283 283 283 283 284 283 284 284 284 284 284 284 283 282 281 280 283
294 294 294 293 292 291 292 291 289 288 287 286 285 283 283 281 280 279 279 279 279 278 279 280 281 282 283 283 283 282 282 283 283 283 284 284 284 284 284 285 285 283 279
293 293 293 292 292 291 292 292 290 288 287 286 284 282 281 280 279 279 278 278 278 279 279 280 281 281 282 282 282 282 281 282 283 282 282 283 283 284 284 285 286 286 284
293 293 292 292 292 291 291 290 290 288 286 284 283 281 279 279 278 278 277 277 278 278 278 279 280 280 281 282 282 281 280 280 281 282 282 282 283 283 283 285 286 286 286
295 293 291 291 290 290 289 289 289 287 285 284 281 280 278 277 277 276 276 277 277 277 278 279 279 280 280 282 281 280 279 279 279 280 280 281 282 282 283 284 285 285 286
293 292 290 289 288 288 288 288 287 286 284 282 280 278 277 277 276 276 276 276 275 276 277 278 278 278 279 281 281 280 278 279 279 279 279 280 282 281 282 284 284 285 286
291 290 289 289 288 287 287 287 286 285 283 281 279 277 276 276 275 275 274 274 274 274 274 276 276 277 279 281 281 279 278 279 279 279 280 280 281 281 283 284 283 284 284
290 289 289 289 288 288 287 285 285 283 281 279 278 276 276 275 273 273 273 273 273 274 273 274 275 276 278 280 280 278 277 278 277 278 279 281 282 283 285 284 283 283 283
289 288 287 287 286 285 285 284 283 281 280 278 275 275 274 272 272 272 272 272 272 273 273 273 274 275 277 281 281 278 277 277 276 277 279 280 282 284 284 285 286 284 282
290 290 288 286 286 285 285 283 282 281 278 276 274 273 272 271 271 271 272 271 272 273 272 273 274 275 276 281 280 277 277 276 276 277 278 279 281 283 282 283 284 284 285
290 289 289 287 286 285 284 283 280 279 276 274 273 272 271 270 270 271 271 272 273 273 274 273 274 275 276 280 280 277 276 276 276 277 278 278 281 282 282 281 281 282 283
288 287 287 286 285 283 282 281 278 277 275 273 272 271 271 270 270 270 271 273 274 274 274 274 273 273 274 279 279 277 276 275 276 277 277 279 279 281 282 280 279 280 280
285 285 285 285 283 283 281 278 277 276 274 273 272 271 271 270 270 271 272 273 274 274 275 274 274 272 273 277 279 278 276 275 276 277 277 278 279 280 281 278 278 276 278
284 285 283 282 282 281 280 277 276 275 276 274 272 271 271 271 271 272 273 273 274 273 273 273 273 273 273 275 277 278 276 274 275 275 275 276 279 279 280 280 278 278 280
283 283 281 280 280 279 278 277 276 277 275 272 271 271 271 272 272 272 272 273 273 272 273 273 274 274 274 275 275 276 276 275 274 273 275 276 278 279 278 278 279 279 279
284 283 282 279 278 278 279 277 276 275 272 271 270 270 271 272 272 271 271 272 272 273 272 273 273 273 275 275 275 275 275 275 272 273 274 276 277 278 277 278 278 275 275
282 281 279 278 276 277 278 279 276 273 271 270 270 270 271 271 271 272 272 272 272 272 272 273 273 273 274 274 274 274 274 274 273 272 273 275 276 276 276 275 275 274 275
281 279 278 277 277 277 278 276 273 272 271 271 270 271 271 271 271 272 272 273 274 274 274 274 274 274 272 273 274 273 273 272 271 270 272 272 271 271 271 272 273 273 272
280 278 278 277 276 276 276 272 273 272 272 271 270 271 271 271 271 271 271 275 274 276 276 276 275 274 275 274 274 274 273 273 272 269 269 268 269 268 268 269 270 271 271
Wind_Speed
17 19 18 17 17 16 15 15 13 11 8 6 5 4 4 2 1 2 4 7 8 9 9 8 9 10 10 12 13 12 16 12 14 12 13 13 14 15 17 11 13 16 16
18 19 20 19 19 18 17 15 14 12 9 5 3 1 1 1 1 1 3 5 7 8 8 9 9 11 10 12 13 13 11 11 13 12 12 11 11 13 14 12 13 17 14
19 20 21 21 19 19 18 15 14 11 9 6 4 3 2 2 4 1 3 4 6 7 8 10 9 10 9 9 12 12 15 12 11 16 7 10 11 19 14 17 14 19 14
18 20 22 22 22 19 16 16 14 12 9 8 6 5 3 2 2 2 3 4 5 6 8 9 9 10 8 10 11 10 11 12 13 11 9 10 13 13 17 11 16 17 17
16 19 21 20 20 17 15 14 14 13 10 9 6 5 4 2 1 0 3 4 4 6 8 9 9 9 8 10 12 11 11 9 9 11 11 11 10 11 11 16 19 17 16
14 15 17 18 17 16 15 14 15 14 12 10 8 6 5 4 2 2 3 3 3 4 8 8 8 9 10 11 10 11 11 10 9 9 11 10 12 12 11 14 15 17 16
11 14 16 17 17 19 17 15 16 14 13 11 9 7 5 4 3 2 3 4 4 4 7 8 9 9 10 11 11 10 11 11 11 11 10 11 10 9 8 10 13 15 13
9 12 14 15 16 17 18 16 16 14 13 12 10 8 7 4 3 3 2 3 3 4 7 7 8 10 11 11 11 8 8 11 10 14 12 10 9 10 11 10 13 13 9
10 13 15 15 16 18 18 17 16 14 14 13 10 9 7 6 5 5 3 2 3 4 6 6 8 9 10 11 11 8 9 10 10 10 12 10 10 10 11 10 10 9 10
9 11 13 15 14 15 15 16 15 14 13 12 10 9 9 7 6 5 3 3 3 4 5 6 7 9 10 11 11 9 9 11 8 9 12 12 11 12 11 11 9 9 8
10 10 11 12 13 13 14 15 15 14 13 12 9 10 9 8 6 5 4 3 3 4 5 5 7 8 10 11 10 11 11 12 11 11 12 13 14 11 12 11 10 10 8
10 11 12 13 12 13 14 15 15 14 13 12 11 10 10 9 8 6 4 3 4 3 4 4 6 8 10 10 11 11 11 11 12 12 12 12 11 14 14 11 13 11 10
8 9 12 13 13 12 13 14 14 14 13 13 12 12 11 9 8 6 5 4 4 3 4 4 6 8 9 10 11 11 10 10 11 11 11 12 13 14 13 12 12 11 9
8 10 11 12 12 13 14 14 14 14 14 13 13 12 10 10 8 7 6 4 3 3 4 5 5 6 7 11 10 11 9 10 10 10 11 11 13 13 13 11 12 11 10
8 10 12 11 12 13 13 13 13 14 14 13 12 11 10 9 9 8 6 4 4 3 2 3 4 5 6 8 11 11 9 9 10 10 11 10 13 21 17 10 10 12 9
9 12 11 12 14 14 14 13 14 14 15 13 12 11 11 9 9 8 7 5 4 3 2 3 4 5 5 15 15 13 7 8 9 9 10 11 12 16 20 19 18 15 10
13 12 14 15 13 15 15 16 15 14 13 14 12 12 11 10 9 9 7 6 4 4 2 2 4 5 7 16 15 12 6 7 8 9 10 10 9 13 13 15 16 13 17
9 8 8 8 11 13 14 15 16 16 15 14 14 12 12 11 10 9 7 6 5 4 3 2 4 5 5 15 14 9 6 6 7 8 9 12 11 14 14 12 11 11 9
6 6 6 5 11 14 15 16 15 15 15 16 15 14 13 12 11 10 9 6 6 5 3 2 3 5 5 14 13 8 5 6 5 6 8 11 11 19 21 11 11 11 10
2 2 4 8 12 13 16 17 16 17 17 16 15 14 13 13 11 10 9 7 6 5 4 3 3 4 5 12 13 9 5 6 5 5 7 13 14 18 20 11 10 10 11
3 3 4 6 9 12 14 14 14 16 15 14 14 13 13 13 11 11 8 7 6 5 3 3 3 4 4 6 11 12 6 5 5 5 6 7 17 17 18 17 11 10 10
5 4 4 5 7 11 13 13 14 12 13 15 15 14 13 10 10 11 9 8 7 6 4 3 2 4 2 6 8 10 10 7 4 5 5 7 15 15 16 14 19 18 12
3 6 7 8 7 9 11 13 12 14 15 15 15 15 14 12 11 11 10 8 7 6 5 3 3 3 2 3 7 7 9 9 5 4 7 12 13 15 11 18 19 13 8
6 6 9 8 9 9 8 8 13 15 16 15 14 13 14 13 11 8 8 7 6 6 5 4 4 3 3 4 4 4 4 6 5 7 5 8 10 12 11 8 10 8 8
6 7 9 10 9 10 10 10 14 15 15 14 13 13 11 12 11 8 7 7 5 6 6 4 4 4 4 4 6 6 4 4 6 3 4 5 6 7 8 8 8 8 8
5 5 6 7 10 11 11 13 14 16 16 15 12 12 11 10 10 9 8 10 10 11 11 10 6 3 8 5 8 10 9 8 7 4 4 5 6 7 7 8 8 8 10
Wind_Direction
209 198 199 188 189 191 191 192 191 189 187 195 199 214 236 219 236 9 8 2 354 350 343 343 341 348 342 342 345 341 337 337 340 333 332 324 336 9 327 328 335 330 325
203 197 195 193 194 193 194 192 196 189 197 199 191 249 250 195 348 357 1 14 353 356 346 346 349 350 342 344 348 349 343 333 342 345 323 335 333 341 322 333 340 331 328
207 200 195 196 193 196 194 196 195 188 191 188 159 162 175 221 217 350 358 5 359 357 354 353 355 350 345 345 346 349 352 337 342 354 360 337 335 324 343 338 337 336 331
206 199 195 197 196 197 190 191 192 186 185 180 190 208 253 259 64 342 353 343 6 360 1 358 359 351 343 349 344 355 346 340 340 339 347 323 318 334 324 340 339 338 338
209 198 195 196 195 195 187 186 183 183 178 181 187 185 194 133 142 17 329 353 359 9 9 2 360 352 351 350 344 349 342 334 340 335 334 335 325 336 320 322 335 336 338
193 197 192 189 192 191 184 184 180 181 178 179 177 192 179 168 184 48 357 356 1 4 16 1 3 354 352 350 347 334 332 335 342 329 337 340 335 339 329 329 330 329 334
180 187 188 182 187 186 184 183 181 179 176 176 172 168 164 153 125 66 27 359 360 2 7 360 4 355 351 347 342 340 337 340 334 338 341 343 338 333 323 324 328 329 336
178 182 188 184 186 185 184 183 180 174 174 174 168 160 155 147 121 89 53 31 11 0 358 359 3 354 351 350 345 344 344 343 339 343 344 340 340 339 330 330 329 337 351
183 185 182 186 186 185 189 184 180 175 174 173 159 158 155 148 131 108 78 43 20 1 347 2 6 357 351 350 347 349 349 347 344 342 341 343 344 339 332 330 333 340 338
176 185 186 189 189 187 187 183 183 175 170 163 161 156 151 140 127 114 100 72 26 4 359 9 12 358 353 353 352 351 350 345 348 352 345 348 349 340 335 335 339 345 342
181 183 186 188 187 186 187 183 182 172 168 162 156 152 148 140 133 122 114 86 50 12 5 11 13 2 357 353 352 355 355 349 345 355 348 349 352 343 336 337 345 353 354
181 181 183 185 188 188 185 184 179 172 166 159 153 154 147 144 139 130 119 95 64 23 1 6 17 10 358 351 350 356 356 351 347 352 350 351 348 344 340 336 351 352 358
176 183 184 193 192 188 186 183 180 171 163 154 153 154 154 149 133 125 116 89 63 11 6 7 19 15 349 346 355 354 356 355 349 348 350 349 352 341 338 348 350 351 357
193 197 200 202 193 187 185 185 177 167 160 160 154 155 155 146 137 131 123 108 86 55 18 353 8 12 333 352 357 355 358 1 351 349 351 351 352 338 340 348 353 352 358
197 208 210 205 197 189 181 181 176 165 157 161 151 146 136 129 130 131 130 116 91 79 11 343 11 12 353 348 4 354 358 4 355 352 355 352 338 345 1 350 357 353 1
215 212 207 194 194 189 180 171 168 165 156 151 144 140 133 142 140 138 137 124 113 106 55 355 22 16 359 343 9 359 4 10 2 356 356 351 346 349 359 357 3 9 4
236 228 215 205 191 180 172 172 163 156 151 147 145 146 143 146 147 142 140 131 126 101 84 6 33 27 357 346 8 5 17 22 9 4 2 348 343 356 354 353 360 9 16
248 233 219 184 176 166 166 159 159 161 154 150 151 150 148 146 145 143 146 142 139 128 94 35 36 24 4 352 8 7 26 36 22 1 2 346 351 356 359 356 359 2 4
243 232 203 158 156 161 158 156 159 161 158 162 161 156 152 148 151 150 152 144 141 134 117 66 48 31 6 352 11 10 30 31 29 3 358 353 359 354 3 2 359 355 2
318 277 136 136 147 159 156 157 166 168 173 168 162 152 151 151 154 149 151 153 147 134 137 113 72 51 7 354 13 21 23 28 10 14 10 5 5 3 6 9 357 356 350
8 56 96 138 152 151 154 162 169 180 170 155 146 146 149 149 151 145 145 148 145 136 131 128 101 68 16 353 17 22 35 22 9 9 7 360 5 7 11 12 8 358 348
130 111 114 128 143 153 159 166 175 166 150 145 147 148 150 151 150 145 147 146 144 139 141 142 122 87 31 15 14 26 38 29 13 18 1 353 1 9 13 15 11 12 7
179 144 148 141 150 171 177 172 164 147 149 154 156 151 151 151 152 148 150 150 159 150 149 150 113 77 39 18 21 18 35 32 32 10 354 354 4 12 15 16 20 11 11
178 165 146 161 172 184 188 173 148 150 152 158 158 153 153 151 155 153 155 149 161 152 148 153 131 107 65 24 18 13 21 29 29 5 354 8 11 22 15 7 17 13 7
168 172 170 170 174 177 182 146 152 155 156 158 160 158 158 157 150 152 157 153 155 154 152 143 140 131 93 44 48 41 35 28 37 329 13 16 14 13 9 6 11 10 7
146 168 192 173 165 171 171 155 163 164 160 162 166 167 159 156 150 144 143 150 146 144 134 135 131 108 106 89 67 61 56 49 75 50 40 26 18 17 5 356 359 10 4